Location: 81360 Arifat, France
(43.7204°N, 2.3408°E)
Time: 22:48:58
(UTC+01:00)

BlueWalker 3 - Pass Details

Date: 05 December 2023
Orbit: 485 x 500 km, 53.2° (Epoch: 29 February)

Event Time Altitude Azimuth Distance (km) Brightness Sun altitude
Exits shadow 05:42:56 40° 136° (SE) 737 3.0 -25.5°
Drops below altitude 10° 05:45:28 10° 130° (SE) 1,683 5.3 -25.0°
Enters shadow 06:42:58 -66° 324° (NW) 12,216 8.9 -14.9°
